#timestamp,LO_Frequency,Hit,StdDev 
1622952015.4,286046998.1,N
1622952035.2,286047002.7,N
1622952055.0,286047000.8,N
1622952055.9,286047000.8,N
1622952075.8,286047000.4,N
1622952095.6,286047000.7,N
1622952115.5,286046999.9,N
1622952135.3,286046996.6,N
1622952155.1,286046999.5,N
1622952175.9,286047002.8,N
1622952195.7,286046999.8,N
1622952215.5,286046998.3,N
1622952235.4,286046999.9,N
1622952255.2,286047001.5,N
1622952275.1,286047001.4,N
1622952276.0,286047001.4,N
1622952295.8,286047002.4,N
1622952315.6,286046999.7,N
1622952335.5,286046998.1,N
1622952355.3,286046998.2,N
1622952375.1,286046999.8,N
1622952395.9,286047002.8,N
1622952415.7,286047002.8,N
1622952435.6,286046998.6,N
1622952455.4,286047001.0,N
1622952475.2,286047000.2,N
1622952495.1,286047002.5,N
1622952496.0,286047002.5,N
1622952515.8,286047002.3,N
1622952535.7,286047002.3,N
1622952555.5,286047001.8,N
1622952575.3,286047000.8,N
1622952595.2,286046999.9,N
1622952615.0,286047002.0,N
1622952615.9,286047002.0,N
1622952635.8,286047000.0,N
1622952655.6,286047002.4,N
1622952675.4,286047004.2,N
1622952695.3,286047003.4,N
1622952715.1,286047001.6,N
1622952735.8,286047001.6,N
1622952755.7,286047004.3,N
1622952775.5,286047003.4,N
1622952795.4,286047001.4,N
1622952815.2,286047004.0,N
1622952835.0,286047002.2,N
1622952835.9,286047002.2,N
1622952855.8,286047002.4,N
1622952875.6,286047001.7,N
1622952895.4,286047004.2,N
1622952915.3,286047003.2,N
1622952935.5,286047003.8,N
1622952955.3,286047003.6,N
1622952975.2,286047003.6,N
1622952995.9,286047005.7,Y
1622953015.7,286047001.4,P
1622953035.6,286046999.7,N
1622953055.4,286047001.0,N
1622953075.2,286047001.2,N
1622953095.1,286047000.1,N
1622953096.0,286047000.1,N
1622953115.8,286047002.2,N
1622953135.7,286047002.1,N
1622953155.5,286047002.8,N
1622953175.3,286046998.6,N
1622953195.2,286046999.5,N
1622953215.0,286046999.5,N
1622953215.9,286046999.5,N
1622953235.7,286046997.3,N
1622953255.6,286046998.0,N
1622953275.4,286046997.9,N
1622953295.3,286046995.9,N
1622953315.1,286046996.2,N
1622953316.0,286046996.2,N
1622953335.8,286046996.2,N
1622953355.7,286046993.6,N
1622953375.5,286046996.4,N
1622953395.3,286046996.2,N
1622953415.2,286046995.1,N
1622953435.0,286046995.1,N
1622953435.9,286046995.1,N
1622953455.8,286046996.0,N
1622953475.6,286046996.2,N
1622953495.4,286046993.6,N
1622953515.3,286046994.1,N
1622953535.1,286046992.3,N
1622953555.8,286046994.8,N
1622953575.7,286046992.0,N
1622953595.5,286046992.1,N
1622953615.4,286046994.7,N
1622953635.2,286046994.3,N
1622953655.0,286046993.6,N
1622953655.9,286046993.6,N
1622953675.8,286046992.4,Y
1622953695.6,286046997.7,P
1622953715.4,286046997.9,N
1622953735.3,286046995.8,P
1622953755.1,286046996.1,Y
1622953775.9,286046997.3,P
1622953795.7,286046999.1,P
1622953815.5,286046996.5,P
1622953835.4,286046997.5,N
1622953855.2,286046997.5,N
1622953875.0,286046997.4,Y
1622953876.0,286046997.4,P
1622953895.8,286046998.2,P
1622953915.6,286047000.9,N
1622953935.5,286047000.1,N
1622953955.3,286046998.1,N
1622953975.1,286046998.6,N
1622953995.9,286046998.5,N
1622954015.7,286046998.3,N
1622954035.5,286046998.6,N
1622954055.4,286046996.7,Y
1622954075.2,286046998.7,P
1622954095.1,286046999.0,P
1622954096.0,286046999.0,P
1622954115.8,286046999.0,Y
1622954165.7,286047000.8,E
1622954175.6,286046998.8,N
1622954195.4,286046999.1,P
1622954215.3,286046998.8,P
1622954235.1,286047001.2,Y
1622954255.8,286046999.1,P
1622954275.7,286046999.5,P
1622954295.5,286046996.9,P
1622954315.4,286046998.3,N
1622954335.2,286047000.8,N
1622954355.0,286046998.6,N
1622954355.9,286046998.6,N
1622954375.8,286046998.8,N
1622954395.6,286046999.6,N
1622954415.4,286046999.6,N
1622954435.3,286046996.5,Y
1622954455.1,286046999.1,P
1622954475.9,286046998.4,P
1622954495.7,286046998.6,P
1622954515.5,286046999.4,N
1622954535.4,286046999.3,N
1622954555.2,286046998.3,Y
1622954575.1,286047000.4,P
1622954576.0,286047000.4,N
1622954595.8,286046998.1,N
1622954615.6,286046998.9,N
1622954635.5,286046999.2,N
1622954655.3,286046998.7,N
1622954675.1,286046998.3,N
1622954695.9,286046998.9,N
1622954715.7,286046998.5,N
1622954735.6,286047000.9,N
1622954755.4,286047002.4,N
1622954775.2,286047001.1,N
1622954795.1,286047000.0,N
1622954796.0,286047000.0,N
1622954815.8,286047004.0,Y
1622954835.6,286047004.4,P
1622954855.5,286047006.0,N
1622954875.3,286047005.0,N
1622954895.2,286047003.1,N
1622954915.9,286047003.4,N
1622954935.7,286047003.7,N
1622954955.6,286047003.0,N
1622954975.4,286047005.2,N
1622954995.2,286047007.1,Y
1622955015.1,286047004.1,P
1622955016.0,286047004.1,P
1622955035.8,286047003.7,P
1622955055.7,286047003.4,Y
1622955075.5,286047001.0,P
1622955095.4,286046998.4,N
1622955115.2,286047001.1,N
1622955135.0,286046998.6,N
1622955135.9,286046998.6,N
1622955155.8,286046996.9,N
1622955175.6,286046999.4,N
1622955195.4,286046998.6,N
1622955215.3,286046997.3,N
1622955235.1,286046997.7,N
1622955255.9,286046997.4,N
1622955275.7,286046999.3,N
1622955295.5,286046998.1,N
1622955315.4,286047000.0,N
1622955335.2,286047001.8,N
1622955355.1,286047004.0,N
1622955356.0,286047004.0,N
1622955375.8,286047002.3,N
1622955395.6,286046998.1,N
1622955415.5,286047000.9,N
1622955435.3,286047000.0,N
1622955455.1,286047000.4,N
1622955475.9,286046998.5,N
1622955495.7,286047000.9,N
1622955515.6,286046999.8,N
1622955535.4,286047002.2,N
1622955555.3,286047004.3,N
1622955575.1,286047001.6,N
1622955576.0,286047001.6,N
1622955595.8,286047004.2,N
